Regional Weather Roundup
Issued by NWS Midland/Odessa, TX

Skip options and go directly to product.
Home | Oldest Version | Previous Version | Current Version | All | Text Only | Save Text | Print | Product List | Glossary Off

Skip product version selection by date and time.   

220
ASUS44 KMAF 192310
RWRMAF
MIDLAND AREA WEATHER ROUNDUP
NATIONAL WEATHER SERVICE MIDLAND TX
600 PM CDT SUN APR 19 2015

...IN SOUTHWEST TEXAS AND SOUTHEAST NEW MEXICO...

CITY           SKY/WX    TMP DP  RH WIND       PRES   REMARKS
ALPINE         MOSUNNY   73  31  21 NE9G16    30.01S
ANDREWS        FAIR      70  36  28 N17G24    29.96R
ARTESIA        SUNNY     72  28  20 NE7G18    29.95F
BIG SPRING     MOSUNNY   74  35  24 NW16G25   29.95R
CARLSBAD       SUNNY     76  28  17 N6        29.92F
DRYDEN           N/A     85  31  14 N12       29.82F
FORT STOCKTON  SUNNY     76  31  19 N9G18     29.90F
GUAD PASS      MOSUNNY   66  32  28 E13       30.00F
HOBBS          MOSUNNY   66  34  30 N16G23    29.98S
MARFA          NOT AVBL
MIDLAND AIRPK  SUNNY     74  35  24 N16G24    29.94R
MIDLAND INTL   SUNNY     73  37  27 N17G26    29.93R
ODESSA         SUNNY     74  33  22 N15       29.94R
PECOS          SUNNY     78  31  18 NE5       29.89S
PRESIDIO       FAIR      83  22  10 SE7       29.84F
SEMINOLE       SUNNY     67  35  30 N15G25    29.99R
SNYDER         MOSUNNY  N/A N/A N/A NW21G28   29.94R
WINK           SUNNY     79  26  14 N12       29.90S
$$
...OTHER STATIONS IN TEXAS...

CITY           SKY/WX    TMP DP  RH WIND       PRES   REMARKS
ABILENE        MOSUNNY   73  42  32 NW20G30   29.87R
AMARILLO       MOSUNNY   60  29  30 N21G29    29.97S
AUSTIN         MOSUNNY   84  45  25 NW15G23   29.74R
BROWNSVILLE    PTSUNNY   82  75  79 SE13      29.74S
CORPUS CHRISTI PTSUNNY   82  75  79 S9        29.74S
DALLAS FTW     MOSUNNY   75  47  36 NW20      29.74R
DEL RIO        SUNNY     89  35  14 N12G18    29.76F
EL PASO        MOSUNNY   80  17   9 SW5       29.87F
HOUSTON INT    CLOUDY    83  68  60 W6        29.72S
LUBBOCK        MOSUNNY   62  37  39 N18G29    29.98S
SAN ANGELO     SUNNY     79  34  19 NW16      29.86R
SAN ANTONIO    MOSUNNY   89  50  26 W10       29.74S
WACO           SUNNY     79  50  36 NW15G22   29.75R
WICHITA FALLS  NOT AVBL
$$
...OTHER LOCATIONS IN NEW MEXICO...

CITY           SKY/WX    TMP DP  RH WIND       PRES   REMARKS
ALAMAGORDO     MOSUNNY   73  18  12 W7        29.90F
ALBUQUERQUE    MOSUNNY   66  20  17 N8        29.95F
CANNON AFB     NOT AVBL
CLOVIS         SUNNY     61  28  29 NE10      30.01S
HOLLOMAN AFB   NOT AVBL
ROSWELL        MOSUNNY   70  28  21 E8        29.96S
RUIDOSO        MOSUNNY   55  27  33 SE17G23   30.04F
SANTA FE       PTSUNNY   58  22  24 NE9       29.98F
TRUTH OR CONSE CLOUDY    69  22  16 CALM      29.93F
TUCUMCARI      MOSUNNY   65  23  20 N5        29.97F
$$

USA.gov is the U.S. government's official web portal to all federal, state and local government web resources and services.